Location: Unspecified
(47.6579°N, 23.5637°E)
Time: 10:06:39
(UTC+02:00)

Envisat - Pass Details

Date: 08 December 2021
Orbit: 764 x 766 km, 98.2° (Epoch: 26 January)

Event Time Altitude Azimuth Distance (km) Brightness Sun altitude
Rises 05:02:04 0° 18° (NNE) 3,245 6.4 -29.1°
Reaches altitude 10° 05:04:29 10° 25° (NNE) 2,314 5.7 -28.7°
Maximum altitude 05:09:23 46° 98° (E) 1,017 3.9 -27.9°
Drops below altitude 10° 05:14:15 10° 172° (S) 2,296 5.6 -27.1°
Sets 05:16:38 0° 179° (S) 3,217 6.3 -26.7°
